Regional Weather Roundup
Issued by NWS

Home | Current Version | Previous Version | Text Only | Print | Product List | Glossary On
Versions: 1 2 3 4 5 6 7 8 9 10 11 12 13 14 15 16 17 18 19 20 21 22 23 24 25 26 27 28 29 30 31 32 33 34 35 36 37 38 39 40 41 42 43 44 45 46 47 48 49 50
353
ASUS44 KLIX 180910
RWRLA
LOUISIANA WEATHER ROUNDUP
NATIONAL WEATHER SERVICE NEW ORLEANS LA
400 AM CDT FRI APR 18 2014

NOTE: "FAIR" INDICATES FEW OR NO CLOUDS BELOW 12,000 FEET WITH NO
      SIGNIFICANT WEATHER AND/OR OBSTRUCTIONS TO VISIBILITY.
      SKY/WX - SKY CONDITION AND SIGNIFICANT WEATHER.
      TMP - AIR TEMPERATURE.    DP   - DEWPOINT TEMPERATURE.
      RH  - RELATIVE HUMIDITY.  PRES - PRESSURE.
      HX  - HEAT INDEX.         WCI  - WIND CHILL INDEX.

*  THESE STATIONS ARE NOT NWS OR FAA STATIONS AND ARE NOT UNDER
   NWS QUALITY CONTROL.

LAZ040-048-061>063-065-066-069-181000-
SOUTHEAST LOUISIANA

CITY           SKY/WX    TMP DP  RH WIND       PRES   REMARKS
N.O. AUDUBON     N/A     64 N/A N/A MISG        N/A
N.O. INTL ARPT CLOUDY    63  60  90 NE8       30.06R
N.O. LAKEFRONT CLOUDY    62  60  93 E15       30.05F
N.O. DOWNTOWN* CLOUDY    63  55  77 NE9       30.05F
SLIDELL        LGT RAIN  61  58  90 NE7       30.05F
BATON ROUGE    CLOUDY    62  55  77 N5        30.09F
BOOTHVILLE     CLOUDY    63  61  93 NE9       30.02S
BELLE CHASSE   CLOUDY    63  58  83 NE13G21   30.04S
BOGALUSA*      DRIZZLE   63  58  83 NE6       30.09F
GALLIANO*      CLOUDY    64  61  89 N9        30.04S
NEW ROADS*     CLOUDY    59  56  88 N6        30.10F
GONZALES*      CLOUDY    62  59  91 N6        30.08S
HAMMOND*       CLOUDY    61  55  82 N6        30.10S
HOUMA*           N/A     62  58  86 N6        30.05S FOG
PORT FOURCHON* CLOUDY    64  61  88 NE13      30.04S

$$

LAZ041-044-053-054-181000-
SOUTHWEST LOUISIANA

CITY           SKY/WX    TMP DP  RH WIND       PRES   REMARKS
LAKE CHARLES   CLEAR     54  53  97 N3        30.10F
LAFAYETTE      CLOUDY    60  59  96 N5        30.09F FOG
PATTERSON      CLOUDY    63  59  88 N7          N/A
SALT POINT       N/A     65  61  87 N3        30.05F
NEW IBERIA     CLOUDY    61  59  93 N7        30.09F FOG
CHENAULT AIRPK CLEAR     55  52  92 N3        30.11F

$$

LAZ027-028-181000-
CENTRAL LOUISIANA

CITY           SKY/WX    TMP DP  RH WIND       PRES   REMARKS
FORT POLK      CLEAR     53  51  93 CALM      30.12S
ALEXANDRIA INT PTCLDY    53  52  96 CALM      30.10F FOG
ALEXANDRIA     FOG       53  51  93 CALM      30.11F VSB 1/4

$$

LAZ001-002-181000-
NORTHWEST LOUISIANA

CITY           SKY/WX    TMP DP  RH WIND       PRES   REMARKS
SHREVEPORT     TSTM      56  53  90 N8        30.16R FOG
BARKSDALE AFB  TSTM      54  52  94 N6        30.16S
DTN SHREVEPORT LGT RAIN  54  52  94 N7        30.17R

$$

LAZ014-016-181000-
NORTHEAST LOUISIANA

CITY           SKY/WX    TMP DP  RH WIND       PRES   REMARKS
MONROE         CLOUDY    55  53  93 CALM      30.16S
TALLULAH       MOCLDY    59  53  80 NE6       30.14F

$$




USA.gov is the U.S. government's official web portal to all federal, state and local government web resources and services.